TimeEDT,TemperatureF,Dew PointF,Humidity,Sea Level PressureIn,VisibilityMPH,Wind Direction,Wind SpeedMPH,Gust SpeedMPH,PrecipitationIn,Events,Conditions,WindDirDegrees,DateUTC
12:14 AM,74.5,68.2,81,30.01,10.0,Calm,Calm,-,N/A,,Mostly Cloudy,0,2013-09-12 04:14:00
12:33 AM,72.3,69.6,91,30.00,10.0,South,3.5,-,N/A,,Scattered Clouds,180,2013-09-12 04:33:00
12:54 AM,72.5,70.3,93,29.99,7.0,Calm,Calm,-,N/A,,Clear,0,2013-09-12 04:54:00
1:14 AM,72.1,70.9,96,29.99,7.0,Calm,Calm,-,N/A,,Clear,0,2013-09-12 05:14:00
1:34 AM,72.0,71.4,98,29.99,7.0,WSW,3.5,-,N/A,,Clear,250,2013-09-12 05:34:00
1:53 AM,70.7,70.3,99,29.98,7.0,Calm,Calm,-,N/A,,Scattered Clouds,0,2013-09-12 05:53:00
2:14 AM,69.6,70.0,100,29.98,5.0,Calm,Calm,-,N/A,,Scattered Clouds,0,2013-09-12 06:14:00
2:34 AM,68.9,69.1,100,29.97,4.0,Calm,Calm,-,N/A,,Clear,0,2013-09-12 06:34:00
2:53 AM,68.0,68.2,100,29.97,2.5,Calm,Calm,-,N/A,,Clear,0,2013-09-12 06:53:00
3:14 AM,68.2,68.4,100,29.96,3.0,Calm,Calm,-,N/A,,Clear,0,2013-09-12 07:14:00
3:34 AM,67.1,67.3,100,29.96,2.5,Calm,Calm,-,N/A,,Clear,0,2013-09-12 07:34:00
3:53 AM,65.8,66.0,100,29.96,0.2,Calm,Calm,-,N/A,Fog,Fog,0,2013-09-12 07:53:00
4:14 AM,69.3,69.3,100,29.95,3.0,Calm,Calm,-,N/A,,Clear,0,2013-09-12 08:14:00
4:33 AM,69.3,69.4,100,29.96,3.0,West,3.5,-,N/A,,Clear,260,2013-09-12 08:33:00
4:53 AM,69.6,69.6,100,29.95,3.0,Calm,Calm,-,N/A,,Clear,0,2013-09-12 08:53:00
5:14 AM,69.1,69.3,100,29.94,2.5,Calm,Calm,-,N/A,,Clear,0,2013-09-12 09:14:00
5:34 AM,69.1,69.3,100,29.94,2.5,Calm,Calm,-,N/A,,Clear,0,2013-09-12 09:34:00
5:53 AM,69.3,69.4,100,29.95,2.5,WSW,3.5,-,N/A,,Clear,240,2013-09-12 09:53:00
6:14 AM,-9999,-9999,N/A,29.95,1.5,SSW,3.5,-,N/A,,Mostly Cloudy,210,2013-09-12 10:14:00
6:34 AM,69.1,69.3,100,29.95,1.8,SW,3.5,-,N/A,,Overcast,230,2013-09-12 10:34:00
6:53 AM,68.9,69.1,100,29.96,2.0,WSW,3.5,-,N/A,,Overcast,240,2013-09-12 10:53:00
7:14 AM,69.1,69.3,100,29.96,1.5,WSW,3.5,-,N/A,,Scattered Clouds,250,2013-09-12 11:14:00
7:33 AM,69.4,69.6,100,29.95,2.0,WSW,4.6,-,N/A,,Clear,240,2013-09-12 11:33:00
7:54 AM,69.6,69.8,100,29.95,4.0,WSW,5.8,-,N/A,,Clear,250,2013-09-12 11:54:00
8:14 AM,69.8,70.0,100,29.95,4.0,WSW,4.6,-,N/A,,Clear,250,2013-09-12 12:14:00
8:34 AM,69.8,70.0,100,29.95,4.0,West,6.9,-,N/A,,Scattered Clouds,270,2013-09-12 12:34:00
8:53 AM,69.8,70.0,100,29.95,7.0,West,6.9,-,N/A,Rain,Rain,280,2013-09-12 12:53:00
9:14 AM,69.3,69.4,100,29.95,7.0,West,8.1,-,N/A,Rain,Rain,260,2013-09-12 13:14:00
9:34 AM,68.2,68.4,100,29.95,5.0,WSW,4.6,-,0.04,Rain,Rain,250,2013-09-12 13:34:00
9:53 AM,68.0,68.2,100,29.95,5.0,Calm,Calm,-,0.08,Rain,Light Rain,0,2013-09-12 13:53:00
10:14 AM,68.0,68.0,100,29.95,4.0,Calm,Calm,-,0.03,Rain,Rain,0,2013-09-12 14:14:00
10:34 AM,67.3,67.5,100,29.95,4.0,West,3.5,-,0.08,Rain,Rain,260,2013-09-12 14:34:00
10:53 AM,67.1,67.1,100,29.95,5.0,Calm,Calm,-,0.11,Rain,Rain,0,2013-09-12 14:53:00
11:14 AM,-9999,-9999,N/A,29.95,3.0,Calm,Calm,-,0.05,Rain,Heavy Rain,0,2013-09-12 15:14:00
11:34 AM,-9999,-9999,N/A,29.94,1.8,WSW,3.5,-,0.46,Rain,Heavy Rain,240,2013-09-12 15:34:00
11:53 AM,66.2,66.2,100,29.93,10.0,Calm,Calm,-,0.46,,Overcast,0,2013-09-12 15:53:00
12:14 PM,66.7,66.9,100,29.93,10.0,Calm,Calm,-,N/A,,Overcast,0,2013-09-12 16:14:00
12:33 PM,67.8,68.2,100,29.93,10.0,West,4.6,-,N/A,,Overcast,270,2013-09-12 16:33:00
12:53 PM,69.1,69.3,100,29.92,10.0,West,8.1,-,N/A,,Mostly Cloudy,260,2013-09-12 16:53:00
1:14 PM,70.7,70.2,98,29.92,10.0,WSW,9.2,-,N/A,,Mostly Cloudy,250,2013-09-12 17:14:00
1:34 PM,70.3,69.6,98,29.92,10.0,West,9.2,-,N/A,,Overcast,270,2013-09-12 17:34:00
1:53 PM,71.1,69.6,95,29.91,10.0,West,8.1,-,N/A,,Overcast,270,2013-09-12 17:53:00
2:14 PM,72.1,67.6,86,29.89,10.0,West,8.1,-,N/A,,Mostly Cloudy,280,2013-09-12 18:14:00
2:34 PM,72.0,68.0,87,29.88,7.0,West,6.9,-,N/A,,Mostly Cloudy,260,2013-09-12 18:34:00
2:53 PM,71.8,68.0,88,29.88,7.0,West,8.1,-,N/A,,Scattered Clouds,270,2013-09-12 18:53:00
3:14 PM,71.2,69.1,93,29.87,10.0,WNW,8.1,-,N/A,Rain,Light Rain,300,2013-09-12 19:14:00
3:34 PM,68.5,66.0,92,29.87,10.0,West,3.5,-,N/A,Rain,Light Rain,270,2013-09-12 19:34:00
3:53 PM,68.4,68.5,100,29.86,7.0,WSW,8.1,-,N/A,,Overcast,250,2013-09-12 19:53:00
4:14 PM,68.2,67.3,97,29.86,10.0,West,5.8,-,N/A,,Overcast,270,2013-09-12 20:14:00
4:33 PM,68.9,68.9,100,29.86,10.0,WNW,3.5,-,N/A,,Overcast,290,2013-09-12 20:33:00
4:54 PM,70.5,68.0,92,29.86,7.0,West,10.4,-,N/A,,Mostly Cloudy,280,2013-09-12 20:54:00
5:14 PM,70.3,67.6,91,29.85,7.0,NW,8.1,-,N/A,,Overcast,310,2013-09-12 21:14:00
5:33 PM,69.6,67.1,92,29.85,7.0,NW,9.2,-,N/A,,Mostly Cloudy,320,2013-09-12 21:33:00
5:54 PM,71.6,62.6,73,29.85,7.0,NNW,10.4,-,N/A,,Mostly Cloudy,330,2013-09-12 21:54:00
6:14 PM,70.7,60.1,69,29.86,10.0,NW,4.6,-,N/A,,Scattered Clouds,310,2013-09-12 22:14:00
6:34 PM,69.8,56.1,62,29.86,10.0,NW,5.8,-,N/A,,Clear,310,2013-09-12 22:34:00
6:53 PM,69.3,57.2,65,29.86,10.0,Calm,Calm,-,N/A,,Clear,0,2013-09-12 22:53:00
7:14 PM,67.6,57.9,71,29.86,10.0,Calm,Calm,-,N/A,,Clear,0,2013-09-12 23:14:00
7:34 PM,63.7,61.7,93,29.87,10.0,Calm,Calm,-,N/A,,Clear,0,2013-09-12 23:34:00
7:53 PM,62.8,61.9,97,29.87,10.0,Calm,Calm,-,N/A,,Clear,0,2013-09-12 23:53:00
8:14 PM,61.9,61.2,97,29.86,10.0,Calm,Calm,-,N/A,,Clear,0,2013-09-13 00:14:00
8:34 PM,60.6,60.8,100,29.86,10.0,Calm,Calm,-,N/A,,Clear,0,2013-09-13 00:34:00
8:54 PM,59.9,59.9,100,29.85,7.0,Calm,Calm,-,N/A,,Clear,0,2013-09-13 00:54:00
9:14 PM,59.9,59.9,100,29.85,7.0,Calm,Calm,-,N/A,,Clear,0,2013-09-13 01:14:00
9:34 PM,58.8,58.8,100,29.85,7.0,Calm,Calm,-,N/A,,Scattered Clouds,0,2013-09-13 01:34:00
9:54 PM,60.1,60.3,100,29.86,7.0,North,4.6,-,N/A,,Mostly Cloudy,360,2013-09-13 01:54:00
10:14 PM,57.2,57.4,100,29.90,7.0,NNW,10.4,21.9,0.08,Rain,Rain,340,2013-09-13 02:14:00
10:34 PM,56.3,56.3,100,29.89,2.5,North,3.5,-,0.48,Rain,Heavy Rain,10,2013-09-13 02:34:00
10:53 PM,56.8,57.2,100,29.91,7.0,Calm,Calm,-,0.53,Rain,Light Rain,0,2013-09-13 02:53:00
11:14 PM,56.8,57.2,100,29.90,7.0,West,3.5,-,0.03,Rain,Rain,280,2013-09-13 03:14:00
11:34 PM,57.2,57.4,100,29.90,7.0,Calm,Calm,-,0.08,Rain,Light Rain,0,2013-09-13 03:34:00
11:53 PM,57.6,57.7,100,29.92,10.0,West,6.9,-,0.09,Rain,Light Rain,270,2013-09-13 03:53:00